[[{"header":{"parameterUnit":"m.s-1","parameterCategory":1,"la1":30.2991,"la2":30.254,"lo1":-89.0895,"lo2":-89.0444,"dy":0.0017,"dx":0.0017,"nx":28,"ny":28,"refTime":"2025-06-18T03:00:00:Z","depth":0,"parameterNumber":2,"parameterNumberName":"U-component_of_WINDS"},"data":[0,0,0,0,0,0,0,0,0,0,0,0,0,0,0,0,0,0,0,0,0,0,0,0,0,0,0,0,0,0,0,0,0,0,0,0,0,0,0,0,0,0,0,0,0,0,0,0,0,0,0,0,0,0,0,0,0,0,1.3045,1.3047,0,1.3219,1.3221,1.3223,1.3264,1.3263,1.3262,1.3261,1.344,1.3446,1.3451,0,0,0,0,0,0,0,0,0,0,0,0,0,1.2746,1.2752,1.3044,1.3047,1.3049,1.3219,1.3221,1.3223,1.3265,1.3263,1.3262,1.326,1.3438,1.3445,1.3452,0,0,0,0,0,0,0,0,0,0,0,0,0,1.2894,1.2753,1.3044,1.309,1.3096,1.3218,1.3221,1.3224,1.3265,1.3263,1.3261,1.326,1.3436,1.3444,1.3453,1.3543,0,0,1.348,1.3484,0,0,0,0,0,0,0,0,1.2885,1.2905,1.3081,1.3087,1.3094,1.3218,1.3182,1.3331,1.3265,1.3201,1.3261,1.3259,1.3368,1.3382,1.3418,1.3551,1.3559,1.3481,1.3486,1.349,1.3492,0,0,0,0,0,0,0,1.2875,1.2897,1.3114,1.3083,1.3091,1.3101,1.312,1.321,1.3292,1.3206,1.321,1.323,1.3371,1.341,1.3423,1.3561,1.348,1.3488,1.3494,1.3497,1.3775,1.3777,0,0,0,0,0,0,1.2857,1.2889,1.3108,1.3119,1.2983,1.3108,1.3129,1.318,1.3291,1.3306,1.3231,1.3231,1.3396,1.3413,1.3429,1.3541,1.349,1.3498,1.3503,1.3772,1.3775,1.3777,0,0,0,0,0,0,1.285,1.2876,1.3101,1.3005,1.3034,1.3115,1.3172,1.3184,1.3224,1.331,1.3324,1.3256,1.3395,1.3417,1.3514,1.3548,1.3502,1.351,1.377,1.3773,1.3776,1.3765,0,0,0,0,0,0,1.2842,1.2874,1.2909,1.3005,1.3039,1.3183,1.3174,1.3189,1.3239,1.324,1.3337,1.3352,1.3395,1.35,1.3522,1.3559,1.3517,1.3767,1.3771,1.3775,1.3762,1.3767,1.3771,0,0,0,0,0,1.2831,1.2899,1.291,1.2937,1.3085,1.3185,1.3204,1.3253,1.3241,1.3277,1.3332,1.3348,1.354,1.351,1.3535,1.3575,1.3765,1.377,1.3775,1.376,1.3766,1.3771,0,0,0,0,0,0,1.2805,1.2913,1.2926,1.3028,1.3096,1.3191,1.3238,1.3257,1.3331,1.333,1.3387,1.3409,1.3501,1.3548,1.3512,1.3667,1.3653,1.3662,1.3633,1.3639,1.3643,1.363,1.3524,0,0,0,0,0,1.2811,1.2883,1.2973,1.3054,1.3088,1.3157,1.3202,1.3233,1.3307,1.3337,1.3399,1.347,1.3546,1.3595,1.367,1.3769,1.379,1.3809,1.3813,1.3816,1.3824,1.3879,1.3887,1.3793,1.3793,1.3793,0,0,1.2824,1.2892,1.2934,1.305,1.3107,1.318,1.3181,1.3259,1.3313,1.3349,1.3443,1.3491,1.3574,1.3672,1.3718,1.3714,1.3855,1.3822,1.3824,1.383,1.3884,1.3893,1.3901,1.3796,1.3795,1.3795,0,0,1.2886,1.2944,1.3018,1.3074,1.316,1.3206,1.3223,1.3315,1.3348,1.3444,1.3471,1.3537,1.3667,1.3725,1.3771,1.3852,1.387,1.3875,1.3898,1.395,1.3958,1.3965,1.3993,1.4002,1.3883,1.3883,1.3883,0,1.2892,1.3003,1.3053,1.3129,1.3178,1.3213,1.3287,1.334,1.3446,1.348,1.3473,1.3636,1.3694,1.3805,1.3825,1.3862,1.3883,1.3865,1.3953,1.396,1.3967,1.3995,1.4005,1.3883,1.3883,1.3883,1.3883,0,1.3005,1.3081,1.313,1.3231,1.3286,1.3361,1.3422,1.3472,1.3498,1.3543,1.364,1.3711,1.38,1.3829,1.3856,1.3944,1.3938,1.3941,1.3928,1.3975,1.4002,1.4013,1.3883,1.3883,1.3883,1.3883,0,0,1.3056,1.3183,1.32,1.3245,1.3342,1.3402,1.3477,1.3564,1.3605,1.3677,1.3742,1.385,1.3853,1.3906,1.3939,1.3985,1.4044,1.3983,1.3985,1.3991,1.4144,1.4141,1.4152,1.4056,1.4058,1.406,1.4137,0,1.3129,1.3265,1.3312,1.3424,1.3495,1.3528,1.3594,1.366,1.3704,1.377,1.3819,1.3895,1.3894,1.3925,1.3972,1.4026,1.4075,1.4022,1.4116,1.4119,1.4094,1.4166,1.4164,1.4233,1.4148,1.4149,1.4151,0,1.3233,1.3305,1.3424,1.3511,1.3542,1.36,1.3683,1.3746,1.3821,1.385,1.3908,1.3937,1.4017,1.3999,1.4109,1.4071,1.4113,1.4145,1.4148,1.4159,1.4137,1.4179,1.4257,1.4267,1.4168,1.4167,1.4165,0,1.3257,1.3384,1.3472,1.351,1.3613,1.3653,1.3698,1.3771,1.382,1.3892,1.3924,1.4005,1.4049,1.411,1.416,1.4143,1.4266,1.4252,1.4292,1.429,1.4316,1.4314,1.4402,1.4343,1.4343,1.4343,1.4342,0,1.3334,1.3405,1.3484,1.3538,1.3618,1.3671,1.3749,1.3796,1.3861,1.3924,1.3957,1.4016,1.4079,1.4145,1.4185,1.427,1.429,1.4315,1.4325,1.4312,1.4309,1.434,1.4336,1.4345,1.4345,1.4344,1.4344,0,1.3375,1.3431,1.3528,1.3617,1.3641,1.3697,1.3773,1.3826,1.3871,1.395,1.3972,1.4043,1.4123,1.4179,1.4282,1.4309,1.44,1.4409,1.4374,1.4379,1.4415,1.4411,1.4526,1.4543,1.4473,1.4473,1.4474,0,1.342,1.3476,1.357,1.3615,1.3659,1.3731,1.378,1.3833,1.3884,1.3972,1.4015,1.4097,1.4165,1.4291,1.4352,1.4431,1.4442,1.4477,1.4454,1.4439,1.4442,1.4438,1.4443,1.448,1.4481,1.4481,1.4481,0,1.3494,1.3519,1.3589,1.3668,1.3726,1.3791,1.3856,1.3891,1.3955,1.401,1.4091,1.4144,1.4249,1.433,1.4414,1.446,1.4481,1.4488,1.4501,1.4489,1.4466,1.4478,1.4383,1.4485,1.4485,1.4485,1.4484,1.4484,1.3539,1.3589,1.3663,1.374,1.3794,1.3854,1.3908,1.3959,1.4028,1.4117,1.4144,1.4229,1.4301,1.4417,1.4464,1.453,1.4528,1.4548,1.4552,1.4556,1.4556,1.4455,1.4546,1.4546,1.4546,1.4546,1.4546,0,1.3614,1.3663,1.3733,1.3823,1.3882,1.3896,1.3969,1.4018,1.4092,1.4158,1.4224,1.4317,1.4396,1.4462,1.4542,1.4583,1.4595,1.4602,1.46,1.461,1.4553,1.4534,1.4591,1.4591,1.4591,1.4591,1.4591,1.4591,1.3661,1.3746,1.3779,1.3892,1.394,1.4023,1.4063,1.4118,1.4171,1.4273,1.4338,1.438,1.4446,1.4531,1.4604,1.4621,1.4649,1.4654,1.4674,1.462,1.4614,1.4609,1.4591,1.466,1.466,1.4725,1.4726,1.4726]},{"header":{"parameterUnit":"m.s-1","parameterCategory":1,"la1":30.2991,"la2":30.254,"lo1":-89.0895,"lo2":-89.0444,"dy":0.0017,"dx":0.0017,"nx":28,"ny":28,"refTime":"2025-06-18T03:00:00:Z","depth":0,"parameterNumber":3,"parameterNumberName":"V-component_of_WINDS"},"data":[0,0,0,0,0,0,0,0,0,0,0,0,0,0,0,0,0,0,0,0,0,0,0,0,0,0,0,0,0,0,0,0,0,0,0,0,0,0,0,0,0,0,0,0,0,0,0,0,0,0,0,0,0,0,0,0,0,0,2.1481,2.1481,0,2.1544,2.1545,2.1546,2.1463,2.146,2.1457,2.1454,2.1521,2.1526,2.153,0,0,0,0,0,0,0,0,0,0,0,0,0,2.1287,2.1291,2.148,2.1481,2.1482,2.1544,2.1545,2.1546,2.1463,2.146,2.1456,2.1453,2.152,2.1525,2.1531,0,0,0,0,0,0,0,0,0,0,0,0,0,2.1363,2.1293,2.148,2.1448,2.1446,2.1544,2.1545,2.1546,2.1464,2.146,2.1455,2.1451,2.1518,2.1525,2.1532,2.1665,0,0,2.1553,2.1556,0,0,0,0,0,0,0,0,2.1359,2.137,2.1452,2.1451,2.1448,2.1491,2.1501,2.1586,2.1465,2.1457,2.1454,2.1449,2.1515,2.1522,2.1544,2.1668,2.1671,2.1553,2.1557,2.156,2.1562,0,0,0,0,0,0,0,2.1354,2.1367,2.1506,2.1454,2.1451,2.1431,2.1436,2.1517,2.1511,2.1458,2.1452,2.146,2.1513,2.1537,2.1545,2.1672,2.1553,2.1559,2.1563,2.1566,2.1905,2.191,0,0,0,0,0,0,2.1352,2.1363,2.1504,2.1508,2.1392,2.1438,2.1444,2.1482,2.151,2.151,2.1464,2.1456,2.1528,2.1537,2.1547,2.1703,2.156,2.1567,2.1571,2.19,2.1906,2.1912,0,0,0,0,0,0,2.1349,2.1366,2.1501,2.1434,2.145,2.1446,2.1489,2.1485,2.151,2.1515,2.1513,2.149,2.1525,2.1537,2.1635,2.1704,2.157,2.1576,2.1895,2.1902,2.1909,2.2018,0,0,0,0,0,0,2.1343,2.1365,2.1416,2.1436,2.1454,2.1589,2.1493,2.149,2.1522,2.1512,2.1539,2.1539,2.1522,2.1625,2.1642,2.1712,2.1582,2.1888,2.1898,2.1907,2.2008,2.2028,2.2045,0,0,0,0,0,2.1337,2.1445,2.1419,2.1436,2.1517,2.1593,2.1603,2.1581,2.1527,2.1578,2.1581,2.1538,2.1694,2.1636,2.1654,2.1727,2.1884,2.1895,2.1906,2.2,2.2024,2.2045,0,0,0,0,0,0,2.1435,2.1447,2.1418,2.1536,2.1564,2.1579,2.1643,2.1608,2.1653,2.1642,2.1613,2.162,2.1724,2.1735,2.1671,2.1856,2.178,2.1795,2.1845,2.1868,2.1886,2.1882,2.1587,0,0,0,0,0,2.147,2.153,2.1538,2.1641,2.1656,2.1647,2.168,2.166,2.1688,2.17,2.171,2.1739,2.1794,2.1832,2.1883,2.2009,2.2013,2.2067,2.2086,2.2101,2.2115,2.218,2.2204,2.1947,2.1947,2.1947,0,0,2.1544,2.1557,2.1598,2.1661,2.168,2.1743,2.1658,2.1729,2.1775,2.1711,2.1804,2.1812,2.1842,2.1954,2.2004,2.1967,2.2186,2.2115,2.2127,2.2132,2.2194,2.2218,2.224,2.1955,2.1954,2.1952,0,0,2.171,2.1727,2.1814,2.1834,2.1864,2.1856,2.1877,2.1897,2.19,2.1992,2.1944,2.1998,2.2095,2.2118,2.2143,2.2314,2.2276,2.2332,2.2429,2.2493,2.2513,2.2531,2.2592,2.2614,2.2345,2.2345,2.2346,0,2.1798,2.1891,2.1863,2.1937,2.1966,2.1908,2.1995,2.2016,2.2062,2.2083,2.204,2.2157,2.2174,2.229,2.2332,2.2353,2.2376,2.2329,2.2512,2.253,2.2546,2.2604,2.2627,2.2352,2.2351,2.235,2.235,0,2.1998,2.2063,2.2129,2.2173,2.2209,2.2289,2.2273,2.2313,2.2289,2.2286,2.2379,2.2397,2.245,2.2475,2.2454,2.2588,2.2563,2.2517,2.244,2.2578,2.2631,2.2653,2.2361,2.2359,2.2357,2.2355,0,0,2.2231,2.2255,2.228,2.2298,2.2325,2.2375,2.2452,2.2502,2.2536,2.2569,2.2632,2.2713,2.2669,2.2697,2.2677,2.2733,2.2867,2.2679,2.268,2.2714,2.3015,2.305,2.3076,2.2841,2.2845,2.2848,2.3012,0,2.2397,2.2529,2.2505,2.2634,2.2693,2.2637,2.2703,2.2727,2.2726,2.2775,2.2773,2.2831,2.2769,2.2785,2.2838,2.284,2.2927,2.2827,2.29,2.2903,2.2895,2.3104,2.3143,2.3297,2.3033,2.3036,2.3039,0,2.2609,2.2647,2.2782,2.2797,2.2821,2.2882,2.2924,2.2973,2.2997,2.2992,2.3022,2.299,2.3066,2.2987,2.309,2.3023,2.3051,2.3055,2.3061,2.3068,2.298,2.3117,2.3345,2.3369,2.3072,2.3069,2.3067,0,2.2765,2.285,2.2941,2.2958,2.2979,2.3022,2.3033,2.3053,2.3084,2.3121,2.3141,2.3187,2.3213,2.3249,2.323,2.3175,2.3337,2.3257,2.3335,2.3336,2.3373,2.3371,2.3609,2.339,2.339,2.3389,2.3389,0,2.2954,2.3038,2.3011,2.3068,2.316,2.313,2.3223,2.3226,2.3244,2.33,2.3254,2.3307,2.3279,2.333,2.3316,2.3403,2.3415,2.3413,2.3408,2.3418,2.3418,2.3436,2.3426,2.3395,2.3394,2.3393,2.3392,0,2.3145,2.313,2.3225,2.3235,2.324,2.3308,2.3316,2.3368,2.3362,2.3433,2.3447,2.3438,2.3495,2.3479,2.3542,2.3532,2.3643,2.3624,2.3634,2.363,2.3709,2.3702,2.3968,2.4002,2.376,2.3762,2.3764,0,2.3267,2.333,2.3346,2.3379,2.3393,2.3447,2.3478,2.345,2.3484,2.3515,2.3564,2.3616,2.3657,2.3751,2.375,2.3797,2.3779,2.3869,2.3786,2.3793,2.3781,2.3778,2.3784,2.3886,2.3889,2.3891,2.3893,0,2.3484,2.3473,2.3519,2.3562,2.3599,2.3632,2.366,2.369,2.3664,2.3704,2.3762,2.3793,2.3855,2.3908,2.3951,2.3961,2.3924,2.3919,2.3939,2.395,2.3954,2.3953,2.368,2.3914,2.3912,2.391,2.3909,2.3908,2.3645,2.3697,2.3716,2.3768,2.3786,2.3813,2.3862,2.3861,2.3908,2.3956,2.3936,2.4002,2.4022,2.4075,2.409,2.4141,2.4107,2.4137,2.4145,2.4153,2.4163,2.3944,2.4149,2.4148,2.4147,2.4147,2.4146,0,2.386,2.3868,2.3916,2.3956,2.3997,2.3955,2.3984,2.4021,2.4079,2.4101,2.4141,2.4206,2.4256,2.4258,2.4304,2.4345,2.4328,2.4358,2.4355,2.4358,2.419,2.4168,2.437,2.437,2.437,2.437,2.437,2.437,2.3977,2.4064,2.4054,2.4149,2.4157,2.422,2.424,2.4264,2.4281,2.4356,2.4397,2.4396,2.441,2.4457,2.4501,2.45,2.4519,2.4556,2.4548,2.4392,2.437,2.4349,2.4328,2.456,2.456,2.4712,2.4713,2.4714]}]]